CW5557 Weather Reports


Display with metric or nautical units.
time (UTC)temp
F
wind
direction
speed
MPH
gust
MPH
rain 1hr
in
rain 24hr
in
rain mn
in
humidity
%
barometer
mb
20180226030703 59 58 5.0 12.0 0.00 0.00 0.00 94 1018.5
20180226023703 59 41 2.0 6.0 0.00 0.00 0.00 94 1018.4
20180226021705 60 66 5.0 9.0 0.00 0.00 0.00 94 1018.3
20180226020704 60 51 4.0 6.0 0.00 0.00 0.00 94 1018.3
20180226014705 60 58 3.0 6.0 0.00 0.00 0.00 94 1018.3
20180226013704 60 46 4.0 12.0 0.00 0.00 0.00 94 1018.3
20180226011706 60 74 6.0 9.0 0.00 0.02 0.00 94 1018.3
20180226010705 61 33 3.0 6.0 0.00 0.02 0.00 94 1018.3
20180226004705 60 50 3.0 7.0 0.00 0.02 0.00 94 1018.0
20180226003705 60 20 6.0 10.0 0.00 0.02 0.00 94 1017.8
20180226001705 61 36 6.0 10.0 0.00 0.02 0.00 93 1017.6
20180226000706 61 25 6.0 10.0 0.00 0.02 0.00 93 1017.5
20180225231707 61 55 6.0 12.0 0.00 0.02 0.00 93 1016.6
20180225230703 62 58 6.0 10.0 0.00 0.02 0.00 93 1016.6
20180225224706 62 76 5.0 12.0 0.00 0.02 0.00 93 1016.6
20180225223704 63 76 6.0 9.0 0.00 0.02 0.00 93 1016.6
20180225221704 63 116 3.0 9.0 0.00 0.02 0.00 92 1016.6
20180225220705 63 128 1.0 6.0 0.00 0.02 0.00 92 1016.6
20180225214704 64 128 2.0 8.0 0.00 0.02 0.00 91 1016.6
20180225213705 65 126 2.0 5.0 0.00 0.02 0.00 91 1016.6
20180225211704 64 131 1.0 3.0 0.00 0.02 0.00 91 1016.6
20180225210704 64 131 1.0 7.0 0.00 0.02 0.00 91 1016.6
20180225204705 65 105 2.0 7.0 0.00 0.02 0.00 89 1016.6
20180225203704 66 140 2.0 7.0 0.00 0.02 0.00 88 1016.7
20180225201704 66 138 2.0 6.0 0.00 0.02 0.00 87 1016.7
20180225200705 67 147 2.0 5.0 0.00 0.02 0.00 86 1016.7
20180225194705 66 147 1.0 5.0 0.00 0.02 0.00 88 1016.7
20180225193704 66 149 2.0 7.0 0.00 0.02 0.00 87 1016.9
20180225191705 66 132 2.0 5.0 0.00 0.02 0.00 86 1016.9
20180225190706 67 132 1.0 5.0 0.00 0.02 0.00 85 1016.9
20180225184704 67 139 3.0 6.0 0.00 0.02 0.00 84 1017.6
20180225183704 68 140 4.0 10.0 0.00 0.02 0.00 83 1017.6
20180225181704 68 165 1.0 8.0 0.00 0.02 0.00 83 1017.6
20180225180704 67 148 3.0 9.0 0.00 0.02 0.00 85 1018.0
20180225174705 68 124 1.0 6.0 0.00 0.02 0.00 84 1019.0
20180225173705 65 150 2.0 10.0 0.00 0.02 0.00 89 1019.0
20180225171704 66 211 1.0 9.0 0.00 0.02 0.00 88 1019.0
20180225170705 65 159 1.0 3.0 0.00 0.02 0.00 88 1019.0
20180225164705 65 157 1.0 3.0 0.00 0.02 0.00 89 1019.0
20180225163707 66 157 1.0 7.0 0.00 0.02 0.00 87 1019.2
20180225154705 67 113 0.0 7.0 0.00 0.02 0.00 82 1017.9
20180225153705 66 108 1.0 9.0 0.00 0.02 0.00 84 1017.9
20180225151705 67 104 3.0 7.0 0.00 0.02 0.00 82 1017.9
20180225150706 67 67 2.0 10.0 0.00 0.02 0.00 80 1017.9
20180225144705 65 72 4.0 7.0 0.00 0.02 0.00 83 1017.9
20180225143705 64 74 3.0 10.0 0.00 0.02 0.00 86 1017.9
20180225141706 62 66 8.0 10.0 0.00 0.02 0.00 90 1017.9
20180225140706 61 35 6.0 14.0 0.00 0.02 0.00 91 1017.9
20180225134706 61 37 8.0 13.0 0.00 0.02 0.00 91 1017.9
20180225133705 61 47 2.0 8.0 0.00 0.02 0.00 92 1017.9
20180225131705 60 52 5.0 6.0 0.00 0.02 0.00 93 1017.9
20180225130705 60 78 2.0 7.0 0.00 0.02 0.00 94 1017.9
20180225124705 59 36 0.0 3.0 0.00 0.02 0.00 94 1017.9
20180225123706 58 41 4.0 7.0 0.00 0.02 0.00 94 1017.9
20180225121706 57 72 4.0 7.0 0.00 0.02 0.00 94 1017.9
20180225120705 57 45 3.0 12.0 0.00 0.02 0.00 94 1017.9
20180225114708 56 61 6.0 10.0 0.00 0.02 0.00 94 1017.9
20180225113706 56 65 8.0 13.0 0.00 0.02 0.00 94 1017.9
20180225111705 55 65 6.0 12.0 0.00 0.02 0.00 94 1017.9
20180225110705 55 58 6.0 9.0 0.00 0.02 0.00 94 1017.9
20180225104707 55 46 2.0 3.0 0.00 0.02 0.00 94 1017.9
20180225103708 55 46 0.0 2.0 0.00 0.02 0.00 94 1017.6
20180225101705 55 46 2.0 5.0 0.00 0.02 0.00 94 1017.6
20180225100705 55 46 3.0 3.0 0.00 0.02 0.00 94 1017.3
20180225094706 55 46 3.0 3.0 0.00 0.02 0.00 94 1016.9
20180225093705 55 46 2.0 3.0 0.00 0.02 0.00 94 1016.9
20180225090705 55 46 3.0 3.0 0.00 0.02 0.00 94 1016.9
20180225084705 55 45 1.0 3.0 0.00 0.02 0.00 94 1016.7
20180225083705 55 45 3.0 5.0 0.00 0.02 0.00 94 1016.7
20180225081706 55 34 5.0 6.0 0.00 0.02 0.00 94 1016.5
20180225080705 56 50 3.0 3.0 0.00 0.02 0.00 94 1016.5
20180225074705 56 59 1.0 3.0 0.00 0.02 0.00 94 1016.5
20180225073705 56 59 1.0 6.0 0.00 0.02 0.00 94 1016.5
20180225071707 56 33 3.0 6.0 0.00 0.02 0.00 94 1016.4
20180225070712 56 28 3.0 12.0 0.00 0.02 0.00 94 1016.4
20180225064705 57 25 5.0 10.0 0.00 0.02 0.00 94 1016.8
20180225063705 57 67 6.0 10.0 0.00 0.02 0.00 94 1016.8
20180225061707 56 58 5.0 10.0 0.00 0.02 0.00 94 1016.8
20180225060708 56 37 6.0 12.0 0.00 0.02 0.00 94 1017.3
20180225054706 56 47 3.0 6.0 0.00 0.02 0.00 94 1017.3
20180225053707 56 41 3.0 5.0 0.00 0.02 0.00 94 1017.3
20180225044706 56 50 6.0 7.0 0.00 0.02 0.00 94 1018.4
20180225043705 56 48 6.0 10.0 0.00 0.02 0.00 94 1018.4
20180225041707 56 38 6.0 10.0 0.00 0.02 0.00 94 1018.4
20180225040707 57 40 5.0 7.0 0.00 0.02 0.00 94 1018.4
20180225034705 57 52 5.0 6.0 0.00 0.02 0.02 94 1018.4
20180225033705 57 37 4.0 5.0 0.00 0.02 0.02 94 1018.4
20180225031705 58 51 2.0 3.0 0.00 0.02 0.02 94 1018.4